• In Latvia
  • List of Countries
  • For 7 days
  • Water Temperature
  • Satellite Maps
  • Weather Map
  • Weather Widgets
  • user-avatar
    Login

    Hourly Weather Townsville

    Today, 2 December, Friday

    Time Temperature Precipitation Wind Pressure Humidity
    00:00 +26°C° 0 mm 3 mps 751 mmHg 82%
    01:00 +25°C° 0 mm 3 mps 751 mmHg 83%
    02:00 +25°C° 0 mm 3 mps 751 mmHg 83%
    03:00 +25°C° 0 mm 3 mps 751 mmHg 84%
    04:00 +25°C° 0 mm 2 mps 751 mmHg 86%
    05:00 +26°C° 0 mm 2 mps 752 mmHg 80%
    06:00 +27°C° 0 mm 2 mps 752 mmHg 74%
    07:00 +28°C° 0 mm 2 mps 753 mmHg 68%
    08:00 +31°C° 0 mm 2 mps 753 mmHg 57%
    09:00 +34°C° 0 mm 3 mps 753 mmHg 46%
    10:00 +36°C° 0 mm 3 mps 753 mmHg 37%
    11:00 +38°C° 0 mm 3 mps 752 mmHg 33%
    12:00 +39°C° 0 mm 3 mps 752 mmHg 29%
    13:00 +40°C° 0 mm 3 mps 752 mmHg 25%
    14:00 +40°C° 0 mm 4 mps 751 mmHg 28%
    15:00 +38°C° 0 mm 4 mps 751 mmHg 31%
    16:00 +36°C° 0 mm 4 mps 751 mmHg 37%
    17:00 +34°C° 0 mm 4 mps 751 mmHg 48%
    18:00 +30°C° 0 mm 4 mps 751 mmHg 59%
    19:00 +28°C° 0 mm 4 mps 752 mmHg 71%
    20:00 +27°C° 0 mm 4 mps 752 mmHg 74%
    21:00 +27°C° 0 mm 4 mps 752 mmHg 78%
    22:00 +26°C° 0 mm 3 mps 753 mmHg 84%
    23:00 +26°C° 0 mm 3 mps 753 mmHg 86%

    Tomorrow, 3 December, Saturday

    Time Temperature Precipitation Wind Pressure Humidity
    00:00 +25°C° 0 mm 3 mps 753 mmHg 88%
    01:00 +25°C° 0 mm 3 mps 753 mmHg 91%
    02:00 +24°C° 0 mm 2 mps 752 mmHg 92%
    03:00 +24°C° 0 mm 2 mps 752 mmHg 92%
    04:00 +24°C° 0 mm 2 mps 752 mmHg 93%
    05:00 +25°C° 0 mm 2 mps 752 mmHg 86%
    06:00 +27°C° 0 mm 1 mps 753 mmHg 79%
    07:00 +28°C° 0 mm 1 mps 753 mmHg 72%
    08:00 +30°C° 0 mm 1 mps 753 mmHg 59%
    09:00 +34°C° 0 mm 2 mps 753 mmHg 47%
    10:00 +37°C° 0 mm 2 mps 753 mmHg 34%
    11:00 +38°C° 0 mm 2 mps 753 mmHg 31%
    12:00 +39°C° 0 mm 3 mps 753 mmHg 28%
    13:00 +40°C° 0 mm 3 mps 752 mmHg 24%
    14:00 +39°C° 0 mm 3 mps 752 mmHg 27%
    15:00 +38°C° 0 mm 4 mps 752 mmHg 30%
    16:00 +36°C° 0 mm 4 mps 751 mmHg 33%
    17:00 +34°C° 0 mm 3 mps 752 mmHg 44%
    18:00 +30°C° 0 mm 3 mps 752 mmHg 56%
    19:00 +28°C° 0 mm 3 mps 752 mmHg 67%
    20:00 +27°C° 0 mm 3 mps 753 mmHg 72%
    21:00 +26°C° 0 mm 3 mps 753 mmHg 76%
    22:00 +26°C° 0 mm 3 mps 754 mmHg 81%
    23:00 +25°C° 0 mm 3 mps 754 mmHg 84%

    Day after tomorrow, 4 December, Sunday

    Time Temperature Precipitation Wind Pressure Humidity
    00:00 +25°C° 0 mm 2 mps 753 mmHg 87%
    01:00 +25°C° 0 mm 2 mps 753 mmHg 90%
    02:00 +24°C° 0 mm 2 mps 753 mmHg 92%
    03:00 +24°C° 0 mm 2 mps 753 mmHg 94%
    04:00 +24°C° 0 mm 2 mps 752 mmHg 96%
    05:00 +25°C° 0 mm 2 mps 753 mmHg 90%
    06:00 +26°C° 0 mm 2 mps 753 mmHg 84%
    07:00 +28°C° 0 mm 2 mps 754 mmHg 78%
    08:00 +30°C° 0 mm 2 mps 754 mmHg 66%
    09:00 +33°C° 0 mm 3 mps 754 mmHg 54%
    10:00 +35°C° 0 mm 3 mps 754 mmHg 43%
    11:00 +36°C° 0 mm 4 mps 754 mmHg 41%
    12:00 +37°C° 0 mm 4 mps 753 mmHg 38%
    13:00 +37°C° 0 mm 4 mps 753 mmHg 36%
    14:00 +36°C° 0 mm 4 mps 752 mmHg 39%
    15:00 +36°C° 0 mm 4 mps 752 mmHg 41%
    16:00 +35°C° 0 mm 4 mps 752 mmHg 43%
    17:00 +33°C° 0 mm 3 mps 752 mmHg 54%
    18:00 +29°C° 0 mm 3 mps 752 mmHg 65%
    19:00 +27°C° 0 mm 3 mps 753 mmHg 76%
    20:00 +26°C° 0 mm 3 mps 753 mmHg 82%
    21:00 +26°C° 0 mm 3 mps 754 mmHg 88%
    22:00 +25°C° 0 mm 3 mps 754 mmHg 94%
    23:00 +25°C° 0 mm 3 mps 754 mmHg 95%

    5 December, Monday

    Time Temperature Precipitation Wind Pressure Humidity
    00:00 +25°C° 0 mm 3 mps 753 mmHg 96%
    01:00 +24°C° 0 mm 3 mps 753 mmHg 97%
    02:00 +24°C° 0 mm 3 mps 753 mmHg 96%
    03:00 +25°C° 0 mm 3 mps 752 mmHg 96%
    04:00 +25°C° 0 mm 3 mps 752 mmHg 95%
    05:00 +25°C° 0 mm 3 mps 753 mmHg 90%
    06:00 +26°C° 0 mm 3 mps 754 mmHg 85%
    07:00 +27°C° 0 mm 3 mps 754 mmHg 80%
    08:00 +29°C° 0 mm 4 mps 754 mmHg 68%
    09:00 +33°C° 0 mm 4 mps 754 mmHg 57%
    10:00 +35°C° 0 mm 4 mps 754 mmHg 45%
    11:00 +36°C° 0 mm 4 mps 754 mmHg 42%
    12:00 +36°C° 0 mm 4 mps 753 mmHg 39%
    13:00 +37°C° 0 mm 4 mps 753 mmHg 35%
    14:00 +37°C° 0 mm 4 mps 752 mmHg 37%
    15:00 +36°C° 0 mm 4 mps 752 mmHg 39%
    16:00 +35°C° 0 mm 4 mps 752 mmHg 41%
    17:00 +33°C° 0 mm 4 mps 752 mmHg 52%
    18:00 +29°C° 0 mm 3 mps 752 mmHg 63%
    19:00 +27°C° 0 mm 3 mps 753 mmHg 75%
    20:00 +26°C° 0 mm 3 mps 753 mmHg 80%
    21:00 +26°C° 0 mm 3 mps 754 mmHg 86%
    22:00 +25°C° 0 mm 3 mps 754 mmHg 92%
    23:00 +25°C° 0 mm 3 mps 754 mmHg 93%

    6 December, Tuesday

    Time Temperature Precipitation Wind Pressure Humidity
    00:00 +25°C° 0 mm 3 mps 753 mmHg 95%
    01:00 +24°C° 0 mm 3 mps 753 mmHg 97%
    02:00 +25°C° 0 mm 3 mps 753 mmHg 96%
    03:00 +25°C° 0 mm 3 mps 753 mmHg 95%
    04:00 +25°C° 0 mm 3 mps 753 mmHg 94%
    05:00 +26°C° 0 mm 3 mps 753 mmHg 89%
    06:00 +27°C° 0 mm 3 mps 754 mmHg 84%
    07:00 +27°C° 0 mm 3 mps 754 mmHg 79%
    08:00 +30°C° 0 mm 4 mps 754 mmHg 68%
    09:00 +33°C° 0 mm 4 mps 754 mmHg 57%
    10:00 +35°C° 0 mm 4 mps 754 mmHg 46%
    11:00 +36°C° 0 mm 4 mps 754 mmHg 44%
    12:00 +36°C° 0 mm 4 mps 753 mmHg 41%
    13:00 +37°C° 0 mm 4 mps 753 mmHg 39%
    14:00 +36°C° 0 mm 4 mps 752 mmHg 41%
    15:00 +36°C° 0 mm 4 mps 752 mmHg 43%
    16:00 +35°C° 0 mm 4 mps 751 mmHg 45%
    17:00 +33°C° 0 mm 4 mps 752 mmHg 56%
    18:00 +29°C° 0 mm 4 mps 752 mmHg 66%
    19:00 +27°C° 0 mm 3 mps 752 mmHg 76%
    20:00 +26°C° 0 mm 3 mps 753 mmHg 82%
    21:00 +26°C° 0 mm 3 mps 753 mmHg 87%
    22:00 +25°C° 0 mm 3 mps 754 mmHg 93%
    23:00 +25°C° 0 mm 3 mps 753 mmHg 93%

    7 December, Wednesday

    Time Temperature Precipitation Wind Pressure Humidity
    00:00 +25°C° 0 mm 3 mps 753 mmHg 92%
    01:00 +25°C° 0 mm 3 mps 753 mmHg 92%
    02:00 +25°C° 0 mm 3 mps 752 mmHg 92%
    03:00 +25°C° 0 mm 3 mps 752 mmHg 91%
    04:00 +25°C° 0 mm 3 mps 752 mmHg 90%
    05:00 +25°C° 0 mm 4 mps 753 mmHg 85%
    06:00 +26°C° 0 mm 4 mps 753 mmHg 79%
    07:00 +27°C° 0 mm 4 mps 754 mmHg 73%
    08:00 +29°C° 0 mm 4 mps 754 mmHg 64%
    09:00 +32°C° 0 mm 4 mps 753 mmHg 54%
    10:00 +34°C° 0 mm 4 mps 753 mmHg 45%
    11:00 +35°C° 0 mm 4 mps 753 mmHg 43%
    12:00 +35°C° 0 mm 4 mps 752 mmHg 41%
    13:00 +36°C° 0 mm 4 mps 751 mmHg 40%
    14:00 +35°C° 0 mm 4 mps 751 mmHg 42%
    15:00 +35°C° 0 mm 4 mps 751 mmHg 44%
    16:00 +34°C° 0 mm 4 mps 750 mmHg 46%
    17:00 +32°C° 0 mm 4 mps 751 mmHg 55%
    18:00 +29°C° 0 mm 3 mps 751 mmHg 65%
    19:00 +26°C° 0 mm 3 mps 752 mmHg 74%
    20:00 +26°C° 0 mm 3 mps 752 mmHg 78%
    21:00 +25°C° 0 mm 3 mps 753 mmHg 82%
    22:00 +24°C° 0 mm 3 mps 753 mmHg 85%
    23:00 +24°C° 0 mm 3 mps 753 mmHg 88%
    Show more